STARLINK-11652, 63315

Orbit data source: Space-Track

STARLINK-11652, 63315 is a payload satellite owned by SpaceX/Seattle (US) in LEO that was launched on Tue, 18 Mar 2025 UTC via an FALCON 9 launch vehicle from the Air Force Eastern Test Range (AFETR). Payload-class satellites include a variety of spacecraft equipped with specific instruments for various scientific and technological missions. These include communications satellites like Starlink; space stations such as the ISS; scientific satellites like the Hubble; Earth observation satellites from companies like Planet Labs, Umbra, and HawkEye 360; GPS; miniature CubeSats for education and research; and military/defense satellites.

Loading next visibility...
Identifier
63315, 2025-057J
Orbit
LEO
Country
Flag of USUS
Related business
Manufacturer
SpaceX/Seattle
Mission
Operational Commercial Communications
Bus & Motor
STARLINK V2MD, Unknown motor
Mass
960 kg wet, ~910 kg dry
Launch date (UTC)
2025-03-18 (1 year ago)
Launch vehicle
FALCON 9
Launch site
Air Force Eastern Test Range (AFETR)
Object type
Payload
Rocket body
Debris
Shape & HBR
Box + 2 Pan, 18.1 m
Radar Cross Section
36.964 m², Large (>1 m²)

Expand to show TLE details & history
Last TLE update: 16 hours ago

TLE from 16 hours ago
0 STARLINK-11652
1 63315U 25057J   26257.25008579  .00156150  00000-0  11923-2 0  9991
2 63315  43.0017 207.9159 0001763 284.5171  75.5502 15.70947955 86867
Epoch: 2026-09-14T06:00Z
TLE epoch observation values (Epoch: 2026-09-14T06:00:07.412Z)
Latitude
0.00005°
Longitude
124.65199°
Altitude
355.662 km
Speed
7.698 km/s
True Right ascension
13h 51m 39s
True Declination
0° 00' 00"
Sunlit
Object was in daylight at epoch
Visualization orbit readout
Latitude
Unknown
Longitude
Unknown
Altitude
Unknown
Speed
Unknown
Apparent Right ascension
Unknown
Apparent Declination
Unknown
Sunlit
N/A
Visualization observer readout
Local Sidereal Time
14:20:48
Azimuth
Unknown
Elevation
Unknown
Doppler factor
Unknown
Orbital elements
Apogee altitude
359.356 km
Perigee altitude
356.98 km
Semi-major axis
6,736.305 km
Eccentricity
0.00018
Inclination
43.0017°
RAAN
207.9159°
Arg. of periapsis
284.5171°
True anomaly
75.56976°
Mean anomaly
75.5502°
Eccentric anomaly
75.55998°
Mean motion
3.92564 °/min
Orbital period
91.7 mins
BSTAR
0.0011923
Loading maneuver chart data...
Computing Atmospheric mass density...
Loading historical data...
Loading historical data...
Loading historical data...
Loading historical data...
Loading historical data...
Loading historical data...
Loading historical data...

Documentation

Showing up to 5 results
|